Location: Kawakawa
(35.3830°S, 174.0670°E)
Time: 15:39:16
(UTC+13:00)

Explorer 7 - Pass Details

Date: 19 December 2019
Orbit: 485 x 679 km, 50.3° (Epoch: 20 January)

Event Time Altitude Azimuth Distance (km) Brightness Sun altitude
Rises 08:40:29 0° 230° (SW) 2,577 9.9 29.1°
Reaches altitude 10° 08:42:39 10° 229° (SW) 1,695 9.1 29.5°
Maximum altitude 08:46:28 87° 143° (SE) 507 7.2 30.3°
Drops below altitude 10° 08:50:23 10° 50° (NE) 1,729 10.0 31.1°
Sets 08:52:37 0° 50° (NE) 2,635 10.8 31.5°
